Key West NAF, FL

10:16 PM EDT on June 22, 2017 (GMT -0400)
Key West Naval Air Station

Weather History for KNQX - June, 2013

Change the Weather History Date:

Wednesday, June 5, 2013

  Actual Average Record
Temperature  
Mean Temperature 80 °F -  
Max Temperature 82 °F 87 °F 93 °F (1985)
Min Temperature 78 °F 78 °F 70 °F (1966)
Cooling Degree Days 15    
Growing Degree Days 30 (Base 50)    
Moisture  
Dew Point 77 °F    
Average Humidity 87    
Maximum Humidity 94    
Minimum Humidity 74    
Precipitation  
Precipitation 0.32 in - - ()
Sea Level Pressure  
Sea Level Pressure 29.91 in    
Wind  
Wind Speed 14 mph (ESE)    
Max Wind Speed 21 mph    
Max Gust Speed 26 mph    
Visibility 9 miles    
Events Rain , Thunderstorm    
Averages and records for this station are not official NWS values.
T = Trace of Precipitation, MM = Missing Value Source: NWS Daily Summary

Daily Weather History Graph

Daily Weather History Graph

Search for Another Location

Airport or City:

Trip Planner

Search our weather history database for the weather conditions in past years. The results will help you decide how hot, cold, wet, or windy it might be!

Date:

Astronomy

Jun. 05, 2013 Rise Set
Actual Time 6:37 AM EDT 8:13 PM EDT
Civil Twilight 6:11 AM EDT 8:38 PM EDT
Nautical Twilight 5:41 AM EDT 9:09 PM EDT
Astronomical Twilight 5:09 AM EDT 9:41 PM EDT
Moon 4:26 AM EDT (6/5) 5:50 PM EDT (6/5)
Length of Visible Light 14h 26m
Length of Day
13h 36m
Waning Crescent, 8% of the Moon is Illuminated
Jun 5
Waning Crescent
Jun 8
New
Jun 16
First Quarter
Jun 23
Full
Jun 30
Last Quarter

Hourly Weather History & Observations

Time (EDT) Temp. Heat Index Dew Point Humidity Pressure Visibility Wind Dir Wind Speed Gust Speed Precip Events Conditions
12:53 AM 81.0 °F 87.9 °F 77.0 °F 88% 29.98 in 10.0 mi East 13.8 mph - N/A   Mostly Cloudy
1:53 AM 81.0 °F 88.6 °F 78.1 °F 91% 29.97 in 10.0 mi East 12.7 mph - N/A   Mostly Cloudy
2:49 AM 80.6 °F 87.1 °F 77.0 °F 89% 29.94 in 10.0 mi East 12.7 mph - 0.01 in Thunderstorm Thunderstorm
2:53 AM 80.1 °F 85.4 °F 75.9 °F 87% 29.93 in 10.0 mi East 11.5 mph - 0.01 in Thunderstorm Thunderstorm
3:05 AM 80.6 °F 86.2 °F 75.2 °F 84% 29.93 in 10.0 mi East 13.8 mph - N/A   Mostly Cloudy
3:53 AM 81.0 °F 87.3 °F 75.9 °F 85% 29.90 in 10.0 mi East 15.0 mph - N/A   Partly Cloudy
4:53 AM 81.0 °F 87.9 °F 77.0 °F 88% 29.90 in 10.0 mi East 12.7 mph - N/A   Partly Cloudy
5:53 AM 81.0 °F 86.7 °F 75.0 °F 82% 29.90 in 10.0 mi East 16.1 mph 23.0 mph N/A   Partly Cloudy
6:53 AM 81.0 °F 87.3 °F 75.9 °F 85% 29.89 in 10.0 mi ESE 17.3 mph - N/A   Overcast
7:45 AM 80.6 °F 86.2 °F 75.2 °F 84% 29.91 in 8.0 mi East 13.8 mph - 0.00 in Rain Light Rain
7:53 AM 81.0 °F 87.3 °F 75.9 °F 85% 29.90 in 10.0 mi East 15.0 mph - 0.00 in   Overcast
8:01 AM 80.6 °F 87.1 °F 77.0 °F 89% 29.91 in 6.0 mi ESE 15.0 mph 23.0 mph 0.02 in Rain Light Rain
8:20 AM 80.6 °F 87.1 °F 77.0 °F 89% 29.91 in 10.0 mi ESE 16.1 mph - 0.02 in   Overcast
8:53 AM 81.0 °F 87.9 °F 77.0 °F 88% 29.92 in 9.0 mi ESE 18.4 mph - 0.02 in   Overcast
9:53 AM 81.0 °F 87.9 °F 77.0 °F 88% 29.93 in 10.0 mi ESE 13.8 mph - N/A   Overcast
10:53 AM 82.0 °F 90.2 °F 77.0 °F 85% 29.94 in 10.0 mi ESE 13.8 mph - N/A   Overcast
11:07 AM 80.6 °F 88.1 °F 78.8 °F 94% 29.95 in 4.0 mi SE 12.7 mph - 0.01 in Rain Light Rain
11:29 AM 80.6 °F 88.1 °F 78.8 °F 94% 29.96 in 2.0 mi SE 13.8 mph - 0.08 in Rain Light Rain
11:53 AM 78.1 °F - 72.0 °F 81% 29.94 in 6.0 mi ESE 20.7 mph 26.5 mph 0.25 in Rain Light Rain
11:57 AM 78.8 °F - 69.8 °F 74% 29.94 in 10.0 mi ESE 20.7 mph 26.5 mph 0.00 in   Overcast
12:53 PM 80.1 °F 85.1 °F 75.0 °F 85% 29.93 in 9.0 mi ESE 10.4 mph - 0.00 in   Overcast
1:53 PM 82.9 °F 92.8 °F 78.1 °F 85% 29.92 in 10.0 mi ESE 13.8 mph - N/A   Overcast
2:47 PM 82.4 °F 92.4 °F 78.8 °F 89% 29.92 in 7.0 mi SE 10.4 mph - 0.01 in Rain Light Rain
2:53 PM 82.0 °F 91.6 °F 79.0 °F 90% 29.91 in 7.0 mi SE 11.5 mph - 0.01 in Rain Light Rain
3:53 PM 82.9 °F 92.8 °F 78.1 °F 85% 29.87 in 10.0 mi ESE 11.5 mph - 0.00 in   Overcast
4:53 PM 82.9 °F 91.8 °F 77.0 °F 82% 29.87 in 10.0 mi ESE 8.1 mph - N/A   Overcast
5:53 PM 82.0 °F 90.2 °F 77.0 °F 85% 29.85 in 10.0 mi ESE 11.5 mph - N/A   Overcast
6:53 PM 82.0 °F 90.2 °F 77.0 °F 85% 29.84 in 10.0 mi ESE 12.7 mph - N/A   Overcast
7:53 PM 82.0 °F 91.0 °F 78.1 °F 88% 29.86 in 10.0 mi ESE 13.8 mph - N/A   Overcast
8:53 PM 81.0 °F 88.6 °F 78.1 °F 91% 29.86 in 10.0 mi ESE 12.7 mph - N/A   Overcast
9:53 PM 80.1 °F 85.8 °F 77.0 °F 90% 29.87 in 8.0 mi SE 15.0 mph - 0.01 in Rain Light Rain
10:53 PM 81.0 °F 89.2 °F 79.0 °F 94% 29.88 in 8.0 mi SE 15.0 mph - 0.01 in   Overcast
11:53 PM 81.0 °F 87.3 °F 75.9 °F 85% 29.88 in 10.0 mi SSE 13.8 mph - 0.01 in   Mostly Cloudy